Regional Weather Roundup
Issued by NWS Memphis, TN

Home | Current Version | Previous Version | Text Only | Print | Product List | Glossary On
Versions: 1 2 3 4 5 6 7 8 9 10 11 12 13 14 15 16 17 18 19 20 21 22 23 24 25 26 27 28 29 30 31 32 33 34 35 36 37 38 39 40 41 42 43 44 45 46 47 48 49 50
211
ASUS44 KMEG 281710
RWRMEG
MEMPHIS CWA HOURLY WEATHER ROUNDUP
NATIONAL WEATHER SERVICE MEMPHIS TN
1200 PM CDT SUN AUG 28 2016

...WEST TENNESSEE...

CITY           SKY/WX    TMP DP  RH WIND       PRES   REMARKS
MEMPHIS INTL   MOSUNNY   94  71  47 E12G18    30.11F HX 101
NWS MEMPHIS      N/A     91 N/A N/A MISG        N/A
JACKSON        SUNNY     90  77  65 E8        30.13F HX 103
LEXINGTON      SUNNY     90  75  62 E6        30.14F HX 100
DYERSBURG      SUNNY     88  75  66 MISG      30.13S HX  97
UNION CITY     MOSUNNY   88  75  66 NE6       30.13F HX  97
PARIS          SUNNY     88  73  62 CALM      30.16F HX  96


...EASTERN ARKANSAS...

CITY           SKY/WX    TMP DP  RH WIND       PRES   REMARKS
JONESBORO      SUNNY     89  77  67 NE7       30.12F HX 101
WEST MEMPHIS   MOSUNNY   91  75  59 E9        30.10S HX 101
BATESVILLE     SUNNY     90  75  62 NE7       30.13S HX 100
NEWPORT        CLOUDY    88  78  72 NE8       30.11F HX 101
WALNUT RIDGE   SUNNY     88  75  66 NE9       30.12F HX  97
BLYTHEVILLE    CLOUDY    82  76  81 SE5       30.14S
SEARCY         MOSUNNY   89  77  67 NE6       30.12F HX 101
STUTTGART      SUNNY     90  73  58 E6        30.10S HX  98
PINE BLUFF     SUNNY     89  72  56 VRB5      30.09S HX  96
MONTICELLO     MOSUNNY   93  72  50 E7        30.08S HX 101


...NORTH MISSISSIPPI...

CITY           SKY/WX    TMP DP  RH WIND       PRES   REMARKS
TUPELO         SUNNY     91  70  49 E5        30.11F HX  96
OXFORD         SUNNY     90  66  45 E10       30.13F HX  92
BATESVILLE     SUNNY     91  73  55 CALM      30.11S HX 100
OLIVE BRANCH   MOSUNNY  N/A N/A N/A E5        30.12S
TUNICA         SUNNY     90  73  58 E8        30.11S HX  98
CLARKSDALE     MOSUNNY   90  72  55 E10       30.10S HX  96
CORINTH        SUNNY     90  72  55 E8        30.12F HX  96
GREENWOOD      SUNNY     92  67  43 E8        30.08F HX  95
COLUMBUS       SUNNY     91  77  63 SE8       30.09F HX 105
GOLDEN TRIANGL   N/A     90  66  45 S5        30.11S HX  92


...SOUTHEAST MISSOURI...

CITY           SKY/WX    TMP DP  RH WIND       PRES   REMARKS
KENNETT        MOSUNNY   90  79  70 E8        30.12F HX 105
WEST PLAINS    SUNNY     86  68  54 E6        30.20F
POPLAR BLUFF   SUNNY     89  75  63 E7        30.14F HX  99
CAPE GIRARDEAU SUNNY     88  73  61 VRB5      30.15F HX  95


...NORTHWEST ALABAMA...

CITY           SKY/WX    TMP DP  RH WIND       PRES   REMARKS
MUSCLE SHOALS  SUNNY     90  69  50 SE6       30.16S HX  94


...MIDDLE TENNESSEE...

CITY           SKY/WX    TMP DP  RH WIND       PRES   REMARKS
NASHVILLE      MOSUNNY   90  72  55 VRB3      30.17F HX  97
CLARKSVILLE    SUNNY     89  72  56 VRB3      30.16F HX  96
COLUMBIA       SUNNY     91  73  55 S3        30.15F HX 100


...WESTERN KENTUCKY...

CITY           SKY/WX    TMP DP  RH WIND       PRES   REMARKS
PADUCAH        SUNNY     90  74  59 VRB3      30.15F HX  99
FORT CAMPBELL  SUNNY     90  74  59 VRB3      30.16F HX  99


...CENTRAL ARKANSAS...

CITY           SKY/WX    TMP DP  RH WIND       PRES   REMARKS
LITTLE ROCK    PTSUNNY   90  76  63 NE8       30.11S HX 101


SKY/WX REPORTED AS FAIR MEANS FEW OR NO CLOUDS BELOW
12 THOUSAND FEET.





USA.gov is the U.S. government's official web portal to all federal, state and local government web resources and services.